Weather History for Lihue, HI

Change the Weather History Date:

Thursday, January 31, 2013

  Actual Average Record
Temperature  
Mean Temperature 72 °F 72 °F  
Max Temperature 78 °F 78 °F 85 °F (1981)
Min Temperature 66 °F 65 °F 54 °F (1985)
Degree Days  
Heating Degree Days 0 0  
Month to date heating degree days 0 0  
Since 1 July heating degree days 0 0  
Cooling Degree Days 7 7  
Month to date cooling degree days 193 209  
Year to date cooling degree days 193 209  
Growing Degree Days 21 (Base 50)    
Moisture  
Dew Point 63 °F    
Average Humidity 76    
Maximum Humidity 87    
Minimum Humidity 64    
Precipitation  
Precipitation T in 0.12 in 3.45 in (1975)
Month to date precipitation 5.88 3.75  
Year to date precipitation 5.88 3.75  
Snow  
Snow 0.00 in - - ()
Month to date snowfall 0.0  
Since 1 July snowfall 0.0  
Snow Depth 0.00 in    
Sea Level Pressure  
Sea Level Pressure 30.10 in    
Wind  
Wind Speed 14 mph (NNE)    
Max Wind Speed 23 mph    
Max Gust Speed 26 mph    
Visibility 10 miles    
Events Rain    
T = Trace of Precipitation, MM = Missing Value Source: NWS Daily Summary

Daily Weather History Graph

Daily Weather History Graph

Search for Another Location

Airport:

Trip Planner

Search our weather history database for the weather conditions in past years. The results will help you decide how hot, cold, wet, or windy it might be!

Date:

Astronomy

Jan. 31, 2013 Rise Set
Actual Time 7:15 AM HST 6:26 PM HST
Civil Twilight 6:52 AM HST 6:49 PM HST
Nautical Twilight 6:25 AM HST 7:16 PM HST
Astronomical Twilight 5:59 AM HST 7:42 PM HST
Moon 10:54 PM HST (1/31) 10:03 AM HST (1/31)
Length of Visible Light 11h 57m
Length of Day
11h 10m
Waning Gibbous, 78% of the Moon is Illuminated
Jan 31
Waning Gibbous
Feb 3
Last Quarter
Feb 9
New
Feb 17
First Quarter
Feb 25
Full

Hourly Weather History & Observations

Time (HST) Temp. Dew Point Humidity Pressure Visibility Wind Dir Wind Speed Gust Speed Precip Events Conditions
12:37 AM 71.6 °F 64.4 °F 78% 30.09 in 10.0 mi NE 15.0 mph - N/A   Mostly Cloudy
12:44 AM 71.6 °F 62.6 °F 73% 30.09 in 10.0 mi NE 15.0 mph - N/A   Mostly Cloudy
12:53 AM 71.1 °F 63.0 °F 75% 30.09 in 10.0 mi NE 16.1 mph - N/A   Scattered Clouds
1:37 AM 71.6 °F 62.6 °F 73% 30.09 in 10.0 mi NNE 13.8 mph - N/A   Mostly Cloudy
1:53 AM 70.0 °F 63.0 °F 78% 30.08 in 10.0 mi North 8.1 mph - N/A   Scattered Clouds
2:14 AM 69.8 °F 62.6 °F 78% 30.08 in 10.0 mi North 8.1 mph - N/A   Mostly Cloudy
2:53 AM 69.1 °F 62.1 °F 78% 30.07 in 10.0 mi North 10.4 mph - N/A   Mostly Cloudy
3:53 AM 69.1 °F 62.1 °F 78% 30.07 in 10.0 mi North 6.9 mph - N/A   Mostly Cloudy
4:24 AM 68.0 °F 62.6 °F 83% 30.07 in 10.0 mi North 6.9 mph - N/A   Scattered Clouds
4:53 AM 68.0 °F 62.1 °F 81% 30.06 in 10.0 mi North 6.9 mph - N/A   Scattered Clouds
5:18 AM 69.8 °F 62.6 °F 78% 30.07 in 10.0 mi North 8.1 mph - N/A   Mostly Cloudy
5:53 AM 68.0 °F 62.1 °F 81% 30.07 in 10.0 mi North 6.9 mph - N/A   Scattered Clouds
6:05 AM 68.0 °F 62.6 °F 83% 30.08 in 10.0 mi North 6.9 mph - N/A   Mostly Cloudy
6:38 AM 68.0 °F 62.6 °F 83% 30.09 in 10.0 mi North 6.9 mph - N/A   Scattered Clouds
6:53 AM 68.0 °F 62.1 °F 81% 30.09 in 10.0 mi NNW 6.9 mph - N/A   Scattered Clouds
7:00 AM 68.0 °F 62.6 °F 83% 30.10 in 10.0 mi North 5.8 mph - N/A   Mostly Cloudy
7:18 AM 66.2 °F 60.8 °F 83% 30.10 in 10.0 mi NNW 4.6 mph - N/A   Scattered Clouds
7:53 AM 66.9 °F 62.1 °F 84% 30.11 in 10.0 mi NW 3.5 mph - N/A   Mostly Cloudy
8:08 AM 71.6 °F 64.4 °F 78% 30.12 in 10.0 mi North 4.6 mph - N/A   Mostly Cloudy
8:33 AM 71.6 °F 62.6 °F 73% 30.13 in 10.0 mi North 10.4 mph - N/A   Partly Cloudy
8:53 AM 72.0 °F 64.0 °F 76% 30.13 in 10.0 mi North 8.1 mph - N/A   Scattered Clouds
9:02 AM 73.4 °F 64.4 °F 73% 30.13 in 10.0 mi North 8.1 mph - N/A   Mostly Cloudy
9:20 AM 73.4 °F 64.4 °F 73% 30.14 in 10.0 mi NE 12.7 mph - N/A   Scattered Clouds
9:53 AM 73.9 °F 63.0 °F 68% 30.14 in 10.0 mi NNE 12.7 mph - N/A   Clear
10:53 AM 75.9 °F 64.9 °F 69% 30.14 in 10.0 mi NNE 15.0 mph - N/A   Partly Cloudy
11:53 AM 75.9 °F 64.0 °F 67% 30.13 in 10.0 mi NNE 15.0 mph - N/A   Clear
12:53 PM 75.9 °F 64.0 °F 67% 30.11 in 10.0 mi NNE 15.0 mph - N/A   Partly Cloudy
1:53 PM 75.9 °F 64.0 °F 67% 30.09 in 10.0 mi NNE 16.1 mph - N/A   Scattered Clouds
2:19 PM 73.4 °F 64.4 °F 73% 30.08 in 10.0 mi NNE 18.4 mph - N/A   Mostly Cloudy
2:33 PM 73.4 °F 62.6 °F 69% 30.08 in 10.0 mi NE 17.3 mph - N/A   Overcast
2:53 PM 75.9 °F 64.0 °F 67% 30.08 in 10.0 mi NNE 17.3 mph - N/A   Scattered Clouds
3:53 PM 75.0 °F 63.0 °F 66% 30.08 in 10.0 mi NNE 18.4 mph - N/A   Clear
4:53 PM 73.0 °F 62.1 °F 68% 30.08 in 10.0 mi NNE 16.1 mph - N/A   Scattered Clouds
5:53 PM 72.0 °F 62.1 °F 71% 30.09 in 10.0 mi NNE 16.1 mph - N/A   Scattered Clouds
6:53 PM 72.0 °F 63.0 °F 73% 30.09 in 10.0 mi NNE 16.1 mph - 0.00 in Rain Light Rain
7:53 PM 72.0 °F 63.0 °F 73% 30.11 in 10.0 mi NE 15.0 mph - 0.00 in   Overcast
8:53 PM 72.0 °F 64.0 °F 76% 30.12 in 10.0 mi NE 19.6 mph - N/A   Mostly Cloudy
9:53 PM 71.1 °F 63.0 °F 75% 30.13 in 10.0 mi NE 18.4 mph - N/A   Mostly Cloudy
10:53 PM 71.1 °F 62.1 °F 73% 30.13 in 10.0 mi NE 19.6 mph - N/A   Mostly Cloudy
11:53 PM 71.1 °F 60.1 °F 68% 30.13 in 10.0 mi NE 19.6 mph - N/A   Partly Cloudy